Home   Weather   Wailuku   Past weeks
Flag for USA

Past Weather in Wailuku, Hawaii, USA — Yesterday and Last 2 Weeks

Now
81 °F

Scattered clouds.


Feels Like: 82 °F
Forecast: 81 / 69 °F
Wind: 24 mph from East

Location: Kahului Airport

Current Time: Mar 25, 2019 at 12:23:12 pm

Latest Report: Mar 25, 2019 at 11:54 am


Visibility: 10 mi

Pressure: 30.09 "Hg

Humidity: 51%

Dew Point: 61 °F

Location of WailukuLocation

Past Weather in Wailuku — Graph

°F

Wailuku Temperature Yesterday

Maximum temperature yesterday: 83 °F (at 12:54 pm)
Minimum temperature yesterday: 66 °F (at 5:54 am)
Average temperature yesterday: 75 °F

High & Low Weather Summary for the Past Weeks

 TemperatureHumidityPressure
High88 °F (Mar 14, 11:54 am)87% (Mar 16, 6:54 am)30.16 "Hg (Mar 16, 6:54 am)
Low58 °F (Mar 18, 5:54 am)39% (Mar 18, 11:54 am)29.90 "Hg (Mar 16, 3:54 pm)
Average74 °F65%30.07 "Hg
* Reported Mar 10 10:54 am — Mar 25 10:54 am, Wailuku. Weather by CustomWeather, © 2019

Note: Actual official high and low records may vary slightly from our data, if they occured in-between our weather recording intervals... More about our weather records

Advertising

Wailuku Weather History for the Previous 24 Hours

Scroll right to see more
 ConditionsComfort  
Time TempWeatherWind HumidityBarometerVisibility
10:54 am
Mon, Mar 25
80 °FScattered clouds.22 mph56%30.12 "Hg10 mi
9:54 am79 °FScattered clouds.21 mph60%30.13 "Hg10 mi
8:54 am75 °FScattered clouds.20 mph69%30.13 "Hg10 mi
7:54 am74 °FScattered clouds.14 mph76%30.12 "Hg10 mi
6:54 am72 °FScattered clouds.14 mph78%30.10 "Hg10 mi
5:54 am67 °FPassing clouds.6 mph76%30.09 "Hg10 mi
4:54 am64 °FPassing clouds.5 mph78%30.08 "Hg10 mi
3:54 am64 °FClear.3 mph78%30.09 "Hg10 mi
2:54 am64 °FClear.7 mph81%30.09 "Hg10 mi
1:54 am67 °FPassing clouds.No wind79%30.10 "Hg10 mi
12:54 am69 °FClear.3 mph70%30.12 "Hg10 mi
11:54 pm
Sun, Mar 24
73 °FClear.6 mph69%30.12 "Hg10 mi
10:54 pm74 °FClear.6 mph62%30.13 "Hg10 mi
9:54 pm74 °FPassing clouds.10 mph64%30.13 "Hg10 mi
8:54 pm75 °FPassing clouds.12 mph58%30.11 "Hg10 mi
7:54 pm74 °FPassing clouds.13 mph60%30.10 "Hg10 mi
6:54 pm75 °FPassing clouds.13 mph62%30.08 "Hg10 mi
5:54 pm78 °FScattered clouds.14 mph58%30.07 "Hg10 mi
4:54 pm81 °FScattered clouds.17 mph54%30.06 "Hg10 mi
3:54 pm81 °FSunny.18 mph54%30.05 "Hg10 mi
2:54 pm81 °FScattered clouds.20 mph56%30.05 "Hg10 mi
1:54 pm83 °FScattered clouds.23 mph53%30.06 "Hg10 mi
12:54 pm83 °FBroken clouds.22 mph53%30.09 "Hg10 mi
Weather by CustomWeather, © 2019

See weather overview